Regional Weather Roundup
Issued by NWS Upton, NY

Current Version | Previous Version | Graphics & Text | Print | Product List | Glossary Off
Versions: 1 2 3 4 5 6 7 8 9 10 11 12 13 14 15 16 17 18 19 20 21 22 23 24 25 26 27 28 29 30 31 32 33 34 35 36 37 38 39 40 41 42 43 44 45 46 47 48 49 50

000
ASUS41 KOKX 040408
RWROKX

REGIONAL WEATHER ROUNDUP
NATIONAL WEATHER SERVICE NEW YORK NY
1200 AM EDT SAT JUL 04 2015

NOTE: "FAIR" INDICATES FEW OR NO CLOUDS BELOW 12,000 FEET WITH NO
SIGNIFICANT WEATHER AND/OR OBSTRUCTIONS TO VISIBILITY.

NYZ071-072-176-178-NJZ106-104-040500-
NEW YORK CITY METRO AREA


CITY           SKY/WX    TMP DP  RH WIND       PRES   REMARKS
CENTRAL PARK   MOCLDY    71  58  63 VRB5      30.00F
LAGUARDIA APRT MOCLDY    72  59  63 S7        29.97F
KENNEDY INTL   CLOUDY    71  60  68 SE7       29.99F
NEWARK/LIBERTY CLOUDY    73  61  65 SE7       29.97F
BRNX BOT. GARD   N/A     70  59  68 SE3       29.99F
TETERBORO      MOCLDY    73  59  61 SE6       29.96S
$$

NYZ177-179-078>081-040500-
LONG ISLAND NEW YORK

CITY           SKY/WX    TMP DP  RH WIND       PRES   REMARKS
FARMINGDALE    CLOUDY    69  59  70 S6        30.00S
ISLIP          CLOUDY    69  60  73 S5        29.98S
SHIRLEY        CLOUDY    65  61  87 CALM      30.01R
WESTHAMPTON    CLOUDY    61  60  97 CALM      30.02R
MONTAUK POINT    N/A     68  63  84 S5        30.02S
$$

NYZ052-065-067-040500-
HUDSON VALLEY

CITY           SKY/WX    TMP DP  RH WIND       PRES   REMARKS
WHITE PLAINS   MOCLDY    66  59  78 E5        29.99S
NEWBURGH       MOCLDY    68  57  68 VRB5      29.99S
MONTGOMERY     PTCLDY    63  58  83 CALM      29.97S
POUGHKEEPSIE   MOCLDY    63  56  78 SE3       29.96S
ALBANY         MOCLDY    62  51  67 CALM      29.98R
$$

NJZ001-105-106-008-010-013-015-019>022-104-040500-
NEW JERSEY

CITY           SKY/WX    TMP DP  RH WIND       PRES   REMARKS
NEWARK/LIBERTY CLOUDY    73  61  65 SE7       29.97F
TETERBORO      MOCLDY    73  59  61 SE6       29.96S
CALDWELL       MOCLDY    72  60  66 CALM      29.97F
MORRISTOWN     MOCLDY    70  63  78 CALM      29.97F
SOMERVILLE     CLOUDY    69  61  75 S3        29.95S
SUSSEX         PTCLDY    64  61  90 CALM      29.97S
ANDOVER          N/A     65  62  90 CALM      29.98S
TRENTON        CLOUDY    70  63  78 S6        29.96F
MILLVILLE      CLOUDY    68  66  93 SE3       29.97S
ATLANTIC CITY  CLOUDY    70  66  87 SE3       29.97S
WRIGHTSTOWN    CLOUDY    67  62  84 SE3       29.95S
TOMS RIVER     CLOUDY    63  59  88 CALM      29.98S
BELMAR         CLOUDY    68  57  68 SE5       29.98S
$$

PAZ047>061-062-071-040500-
EASTERN PENNSYLVANIA

CITY           SKY/WX    TMP DP  RH WIND       PRES   REMARKS
PHILADELPHIA   CLOUDY    72  64  76 SE5       29.97S
ALLENTOWN      CLOUDY    73  61  65 S6        29.96S
SCRANTON       CLOUDY    69  59  70 VRB3      29.96F
$$

CTZ002-004>006-009-010-012-RIZ004-006-007-MAZ004-011-015-040500-
SOUTHERN NEW ENGLAND
 IN CT

CITY           SKY/WX    TMP DP  RH WIND       PRES   REMARKS
BRADLEY INTL   MOCLDY    66  54  65 S7        29.99R
HARTFORD       MOCLDY    64  57  78 SE8       29.99S
DANBURY        MOCLDY    65  54  67 CALM      30.00F
WTRBRY/OXFORD  MOCLDY    63  54  72 CALM      30.02S
BRIDGEPORT     MOCLDY    69  61  75 CALM      29.99S
MERIDEN        MOCLDY    62  57  83 CALM      30.00R
NEW HAVEN      MOCLDY    63  59  87 CALM      29.99F
CHESTER        FAIR      63  61  94 CALM      30.02S
GROTON         CLOUDY    64  60  87 CALM      30.00S
WILLIMANTIC    MOCLDY    61  58  90 CALM      30.02R

 IN RI

CITY           SKY/WX    TMP DP  RH WIND       PRES   REMARKS
PROVIDENCE     MOCLDY    64  57  78 S5        30.01S
BLOCK ISLAND   CLOUDY    66  61  82 S6        30.01S
WESTERLY       CLOUDY    62  59  90 CALM      30.01S

 IN MA

CITY           SKY/WX    TMP DP  RH WIND       PRES   REMARKS
BOSTON         PTCLDY    65  55  70 SW8       30.00R
WORCESTER      MOCLDY    62  54  74 SW9       30.03R
WESTFIELD      MOCLDY    59  55  87 CALM      29.99S
PROVINCETOWN   PTCLDY    63   7  11 S9        30.02R
NANTUCKET      PTCLDY    58  56  93 S6        30.02R
$$

ANZ330-335-338-340-345-350-353-355-040500-
COASTAL MARINE OBSERVATIONS


STATION/POSITION TIME  SKY/WX   TEMP    WIND        PRES    VSBY  WAVE
                                AIR SEA DIR/SP/G                  HT/PER
                 (UTC)          (F)     (DEG/KT/KT) (MB)    (MI)  (FT/S)
NY HARB ENTRANCE 0350            70 71  150/  8/ 10 1015.0          3/ 8
4S FIRE IS       0303               71                N/A           3/ 8
20S FIRE ISLAND  0350            69 69  150/  4/  4 1015.4          3/ 8
GREAT SOUTH BAY  NOT AVBL
23SW MTP         0350            68 68  170/  4/  6 1015.6          3/ 9
HUDSON CANYON    NOT AVBL
KINGS POINT      0300            70 66  180/  3/  5 1014.7
CENTRAL LI SOUND NOT AVBL
EASTERN LI SOUND 0300            65 65  170/  6/  8   N/A
ROBBINS REEF     0300            71     140/  6/  7 1014.1
$$


>>>>>>>>>>>>>>>>>>>>>>>>>>>> KEY <<<<<<<<<<<<<<<<<<<<<<<<<<<
>                                                          <
>     SKY/WX - SKY CONDITION/PRESENT WEATHER               <
>     TMP    - TEMPERATURE IN FAHRENHEIT                   <
>     DP     - DEWPOINT IN FAHRENHEIT                      <
>     RH     - RELATIVE HUMIDITY IN PERCENT                <
>     WIND   - DIRECTION AND SPEED IN MPH                  <
>     PRES   - MEAN SEA LEVEL PRESSURE IN INCHES OF HG     <
>     WCI    - WIND CHILL INDEX                            <
>     VSB    - VISIBILITY IN MILES                         <
>     HX     - HEAT INDEX                                  <
>     TC     - TEMPERATURE IN CELSIUS                      <
>     VRB    - VARIABLE WIND DIRECTION                     <
>                                                          <
>>>>>>>>>>>>>>>>>>>>>>>>>>>> KEY <<<<<<<<<<<<<<<<<<<<<<<<<<<




USA.gov is the U.S. government's official web portal to all federal, state and local government web resources and services.